| time (UTC) | temp F | wind direction | speed MPH | gust MPH | rain 1hr in | rain 24hr in | rain mn in | humidity % | barometer mb |
| 20260506182718 | 67 | 252 | 10.0 | 19.0 | 0.00 | 0.01 | 0.01 | 74 | 1006.3 |
| 20260506182235 | 67 | 175 | 2.0 | 14.0 | 0.00 | 0.01 | 0.01 | 74 | 1006.3 |
| 20260506181723 | 67 | 148 | 7.0 | 16.0 | 0.00 | 0.01 | 0.01 | 74 | 1006.4 |
| 20260506181219 | 67 | 192 | 10.0 | 21.0 | 0.00 | 0.01 | 0.01 | 74 | 1006.5 |
| 20260506180736 | 67 | 267 | 13.0 | 21.0 | 0.00 | 0.01 | 0.01 | 75 | 1006.5 |
| 20260506180243 | 67 | 210 | 8.0 | 18.0 | 0.00 | 0.01 | 0.01 | 75 | 1006.5 |
| 20260506175735 | 67 | 225 | 6.0 | 18.0 | 0.00 | 0.01 | 0.01 | 75 | 1006.6 |
| 20260506175223 | 67 | 217 | 7.0 | 20.0 | 0.00 | 0.01 | 0.01 | 75 | 1006.7 |
| 20260506174740 | 68 | 209 | 9.0 | 20.0 | 0.00 | 0.01 | 0.01 | 75 | 1006.8 |
| 20260506174233 | 68 | 229 | 9.0 | 21.0 | 0.00 | 0.01 | 0.01 | 74 | 1006.7 |
| 20260506173721 | 68 | 184 | 9.0 | 23.0 | 0.00 | 0.01 | 0.01 | 73 | 1006.7 |
| 20260506173237 | 68 | 184 | 17.0 | 24.0 | 0.00 | 0.01 | 0.01 | 73 | 1006.7 |
| 20260506172745 | 68 | 188 | 10.0 | 24.0 | 0.00 | 0.01 | 0.01 | 74 | 1006.7 |
| 20260506172239 | 68 | 198 | 13.0 | 20.0 | 0.00 | 0.01 | 0.01 | 74 | 1006.6 |
| 20260506171744 | 68 | 175 | 9.0 | 20.0 | 0.00 | 0.01 | 0.01 | 75 | 1006.5 |
| 20260506171237 | 68 | 162 | 9.0 | 18.0 | 0.00 | 0.01 | 0.01 | 76 | 1006.5 |
| 20260506170728 | 68 | 191 | 11.0 | 14.0 | 0.00 | 0.01 | 0.01 | 78 | 1006.6 |
| 20260506170305 | 67 | 200 | 7.0 | 14.0 | 0.01 | 0.01 | 0.01 | 79 | 1006.7 |
| 20260506165734 | 67 | 188 | 6.0 | 9.0 | 0.01 | 0.01 | 0.01 | 81 | 1006.7 |
| 20260506165221 | 66 | 157 | 6.0 | 9.0 | 0.01 | 0.01 | 0.01 | 82 | 1006.8 |
| 20260506164805 | 66 | 190 | 4.0 | 9.0 | 0.01 | 0.01 | 0.01 | 82 | 1007.0 |
| 20260506164302 | 66 | 148 | 5.0 | 9.0 | 0.01 | 0.01 | 0.01 | 80 | 1007.2 |
| 20260506163729 | 66 | 208 | 6.0 | 10.0 | 0.01 | 0.01 | 0.01 | 80 | 1007.4 |
| 20260506163244 | 66 | 214 | 6.0 | 10.0 | 0.01 | 0.01 | 0.01 | 80 | 1007.6 |
| 20260506162734 | 66 | 148 | 3.0 | 12.0 | 0.01 | 0.01 | 0.01 | 79 | 1007.8 |
| 20260506162224 | 66 | 205 | 6.0 | 12.0 | 0.01 | 0.01 | 0.01 | 79 | 1007.9 |
| 20260506161738 | 66 | 190 | 1.0 | 11.0 | 0.01 | 0.01 | 0.01 | 79 | 1008.0 |
| 20260506161228 | 66 | 195 | 4.0 | 11.0 | 0.01 | 0.01 | 0.01 | 78 | 1008.1 |
| 20260506160741 | 66 | 194 | 5.0 | 10.0 | 0.01 | 0.01 | 0.01 | 77 | 1008.2 |
| 20260506160235 | 67 | 194 | 6.0 | 9.0 | 0.00 | 0.00 | 0.00 | 77 | 1008.3 |
| 20260506155743 | 67 | 194 | 2.0 | 10.0 | 0.00 | 0.00 | 0.00 | 75 | 1008.3 |
| 20260506155256 | 67 | 256 | 5.0 | 11.0 | 0.00 | 0.00 | 0.00 | 75 | 1008.3 |
| 20260506154805 | 68 | 205 | 6.0 | 16.0 | 0.00 | 0.00 | 0.00 | 73 | 1008.4 |
| 20260506154252 | 69 | 189 | 10.0 | 16.0 | 0.00 | 0.00 | 0.00 | 72 | 1008.3 |
| 20260506153743 | 69 | 198 | 9.0 | 20.0 | 0.00 | 0.00 | 0.00 | 71 | 1008.1 |
| 20260506153230 | 70 | 192 | 8.0 | 20.0 | 0.00 | 0.00 | 0.00 | 68 | 1008.0 |
| 20260506152803 | 70 | 236 | 10.0 | 18.0 | 0.00 | 0.00 | 0.00 | 66 | 1008.1 |
| 20260506152230 | 70 | 223 | 10.0 | 18.0 | 0.00 | 0.00 | 0.00 | 65 | 1008.1 |
| 20260506151744 | 70 | 199 | 8.0 | 21.0 | 0.00 | 0.00 | 0.00 | 67 | 1008.1 |
| 20260506151235 | 70 | 167 | 15.0 | 21.0 | 0.00 | 0.00 | 0.00 | 67 | 1008.1 |
| 20260506150725 | 70 | 209 | 9.0 | 18.0 | 0.00 | 0.00 | 0.00 | 67 | 1008.3 |
| 20260506150242 | 70 | 240 | 9.0 | 21.0 | 0.00 | 0.00 | 0.00 | 67 | 1008.2 |
| 20260506145731 | 70 | 188 | 7.0 | 21.0 | 0.00 | 0.00 | 0.00 | 67 | 1008.2 |
| 20260506145223 | 70 | 200 | 7.0 | 20.0 | 0.00 | 0.00 | 0.00 | 66 | 1008.3 |
| 20260506144737 | 70 | 217 | 10.0 | 15.0 | 0.00 | 0.00 | 0.00 | 66 | 1008.3 |
| 20260506144227 | 70 | 170 | 5.0 | 16.0 | 0.00 | 0.00 | 0.00 | 67 | 1008.3 |
| 20260506143742 | 70 | 202 | 7.0 | 16.0 | 0.00 | 0.00 | 0.00 | 66 | 1008.3 |
| 20260506143228 | 70 | 203 | 8.0 | 19.0 | 0.00 | 0.00 | 0.00 | 66 | 1008.3 |
| 20260506142722 | 71 | 308 | 9.0 | 19.0 | 0.00 | 0.00 | 0.00 | 65 | 1008.2 |
| 20260506142241 | 71 | 157 | 9.0 | 23.0 | 0.00 | 0.00 | 0.00 | 66 | 1008.3 |
| 20260506141733 | 71 | 252 | 8.0 | 23.0 | 0.00 | 0.00 | 0.00 | 66 | 1008.3 |
| 20260506141222 | 70 | 141 | 4.0 | 13.0 | 0.00 | 0.00 | 0.00 | 67 | 1008.2 |
| 20260506140755 | 70 | 219 | 11.0 | 16.0 | 0.00 | 0.00 | 0.00 | 67 | 1008.3 |
| 20260506140222 | 70 | 184 | 6.0 | 16.0 | 0.00 | 0.00 | 0.00 | 67 | 1008.2 |
| 20260506135740 | 70 | 207 | 5.0 | 20.0 | 0.00 | 0.00 | 0.00 | 67 | 1008.3 |
| 20260506135233 | 70 | 209 | 5.0 | 20.0 | 0.00 | 0.00 | 0.00 | 67 | 1008.3 |
| 20260506134738 | 70 | 250 | 6.0 | 20.0 | 0.00 | 0.00 | 0.00 | 67 | 1008.2 |
| 20260506134252 | 70 | 203 | 7.0 | 20.0 | 0.00 | 0.00 | 0.00 | 67 | 1008.1 |
| 20260506133744 | 70 | 247 | 10.0 | 20.0 | 0.00 | 0.00 | 0.00 | 67 | 1008.2 |
| 20260506133233 | 70 | 205 | 8.0 | 16.0 | 0.00 | 0.00 | 0.00 | 67 | 1008.3 |
| 20260506132743 | 70 | 219 | 7.0 | 19.0 | 0.00 | 0.00 | 0.00 | 67 | 1008.3 |
| 20260506132233 | 70 | 215 | 9.0 | 19.0 | 0.00 | 0.00 | 0.00 | 67 | 1008.4 |
| 20260506131722 | 70 | 229 | 7.0 | 24.0 | 0.00 | 0.00 | 0.00 | 67 | 1008.4 |
| 20260506131237 | 70 | 141 | 12.0 | 24.0 | 0.00 | 0.00 | 0.00 | 67 | 1008.4 |
| 20260506130729 | 70 | 192 | 8.0 | 16.0 | 0.00 | 0.00 | 0.00 | 69 | 1008.4 |
| 20260506130243 | 69 | 200 | 12.0 | 19.0 | 0.00 | 0.00 | 0.00 | 69 | 1008.3 |
| 20260506125734 | 69 | 197 | 15.0 | 19.0 | 0.00 | 0.00 | 0.00 | 69 | 1008.4 |
| 20260506125221 | 69 | 203 | 9.0 | 18.0 | 0.00 | 0.00 | 0.00 | 70 | 1008.4 |
| 20260506124755 | 69 | 159 | 6.0 | 18.0 | 0.00 | 0.00 | 0.00 | 69 | 1008.2 |
| 20260506124244 | 69 | 230 | 9.0 | 20.0 | 0.00 | 0.00 | 0.00 | 70 | 1008.3 |
| 20260506123735 | 68 | 168 | 9.0 | 20.0 | 0.00 | 0.00 | 0.00 | 70 | 1008.2 |
| 20260506123223 | 68 | 225 | 7.0 | 15.0 | 0.00 | 0.00 | 0.00 | 71 | 1008.1 |
| 20260506122719 | 67 | 163 | 12.0 | 18.0 | 0.00 | 0.00 | 0.00 | 71 | 1008.2 |
| 20260506122236 | 67 | 194 | 8.0 | 18.0 | 0.00 | 0.00 | 0.00 | 72 | 1008.2 |
| 20260506121755 | 67 | 223 | 7.0 | 18.0 | 0.00 | 0.00 | 0.00 | 72 | 1008.4 |
| 20260506121221 | 66 | 175 | 10.0 | 18.0 | 0.00 | 0.00 | 0.00 | 72 | 1008.5 |
| 20260506120737 | 66 | 180 | 7.0 | 22.0 | 0.00 | 0.00 | 0.00 | 72 | 1008.5 |
| 20260506120233 | 66 | 256 | 5.0 | 22.0 | 0.00 | 0.00 | 0.00 | 72 | 1008.4 |
| 20260506115722 | 66 | 126 | 6.0 | 16.0 | 0.00 | 0.00 | 0.00 | 72 | 1008.5 |
| 20260506115235 | 66 | 157 | 4.0 | 15.0 | 0.00 | 0.00 | 0.00 | 73 | 1008.4 |
| 20260506114741 | 66 | 167 | 6.0 | 21.0 | 0.00 | 0.00 | 0.00 | 72 | 1008.4 |
| 20260506114232 | 66 | 211 | 12.0 | 21.0 | 0.00 | 0.00 | 0.00 | 72 | 1008.5 |
| 20260506113720 | 66 | 182 | 8.0 | 18.0 | 0.00 | 0.00 | 0.00 | 72 | 1008.6 |
| 20260506113237 | 66 | 179 | 4.0 | 16.0 | 0.00 | 0.00 | 0.00 | 73 | 1008.7 |
| 20260506112756 | 66 | 204 | 8.0 | 19.0 | 0.00 | 0.00 | 0.00 | 73 | 1008.5 |
| 20260506112222 | 66 | 203 | 11.0 | 19.0 | 0.00 | 0.00 | 0.00 | 73 | 1008.4 |
| 20260506111755 | 65 | 188 | 7.0 | 15.0 | 0.00 | 0.00 | 0.00 | 74 | 1008.5 |
| 20260506111244 | 65 | 191 | 8.0 | 13.0 | 0.00 | 0.00 | 0.00 | 75 | 1008.6 |
| 20260506110754 | 64 | 197 | 8.0 | 18.0 | 0.00 | 0.00 | 0.00 | 75 | 1008.6 |
| 20260506110222 | 64 | 180 | 10.0 | 18.0 | 0.00 | 0.00 | 0.00 | 75 | 1008.6 |
| 20260506105737 | 64 | 153 | 7.0 | 16.0 | 0.00 | 0.00 | 0.00 | 75 | 1008.6 |
| 20260506105224 | 64 | 157 | 7.0 | 16.0 | 0.00 | 0.00 | 0.00 | 76 | 1008.5 |
| 20260506104741 | 64 | 141 | 9.0 | 15.0 | 0.00 | 0.00 | 0.00 | 76 | 1008.5 |
| 20260506104232 | 64 | 231 | 9.0 | 15.0 | 0.00 | 0.00 | 0.00 | 77 | 1008.5 |
| 20260506103721 | 64 | 185 | 10.0 | 15.0 | 0.00 | 0.00 | 0.00 | 77 | 1008.4 |
| 20260506103237 | 63 | 161 | 5.0 | 14.0 | 0.00 | 0.00 | 0.00 | 77 | 1008.4 |
| 20260506102744 | 63 | 196 | 6.0 | 10.0 | 0.00 | 0.00 | 0.00 | 77 | 1008.4 |
| 20260506102238 | 63 | 133 | 7.0 | 10.0 | 0.00 | 0.00 | 0.00 | 77 | 1008.5 |
| 20260506101723 | 63 | 211 | 7.0 | 11.0 | 0.00 | 0.00 | 0.00 | 77 | 1008.5 |
| 20260506101237 | 63 | 188 | 7.0 | 11.0 | 0.00 | 0.00 | 0.00 | 77 | 1008.5 |
| 20260506100751 | 63 | 198 | 5.0 | 12.0 | 0.00 | 0.00 | 0.00 | 77 | 1008.4 |
| 20260506100239 | 64 | 198 | 5.0 | 13.0 | 0.00 | 0.00 | 0.00 | 77 | 1008.4 |
| 20260506095726 | 64 | 172 | 6.0 | 11.0 | 0.00 | 0.00 | 0.00 | 77 | 1008.4 |
| 20260506095240 | 64 | 130 | 6.0 | 10.0 | 0.00 | 0.00 | 0.00 | 77 | 1008.3 |
| 20260506094733 | 64 | 163 | 7.0 | 10.0 | 0.00 | 0.00 | 0.00 | 77 | 1008.3 |
| 20260506094222 | 64 | 160 | 7.0 | 11.0 | 0.00 | 0.00 | 0.00 | 77 | 1008.3 |
| 20260506093741 | 64 | 201 | 4.0 | 13.0 | 0.00 | 0.00 | 0.00 | 77 | 1008.3 |
| 20260506093248 | 64 | 149 | 7.0 | 13.0 | 0.00 | 0.00 | 0.00 | 77 | 1008.2 |
| 20260506092721 | 64 | 169 | 6.0 | 12.0 | 0.00 | 0.00 | 0.00 | 77 | 1008.2 |
| 20260506092238 | 64 | 215 | 7.0 | 12.0 | 0.00 | 0.00 | 0.00 | 77 | 1008.3 |
| 20260506091725 | 64 | 217 | 4.0 | 15.0 | 0.00 | 0.00 | 0.00 | 77 | 1008.2 |
| 20260506091240 | 64 | 157 | 6.0 | 15.0 | 0.00 | 0.00 | 0.00 | 77 | 1008.4 |
| 20260506090727 | 64 | 163 | 6.0 | 12.0 | 0.00 | 0.00 | 0.00 | 77 | 1008.5 |
| 20260506090221 | 64 | 169 | 5.0 | 16.0 | 0.00 | 0.00 | 0.00 | 77 | 1008.4 |
| 20260506085738 | 64 | 207 | 8.0 | 16.0 | 0.00 | 0.00 | 0.00 | 77 | 1008.4 |
| 20260506085255 | 64 | 180 | 9.0 | 14.0 | 0.00 | 0.00 | 0.00 | 76 | 1008.4 |
| 20260506084724 | 64 | 175 | 8.0 | 14.0 | 0.00 | 0.00 | 0.00 | 76 | 1008.5 |
| 20260506084243 | 65 | 142 | 7.0 | 14.0 | 0.00 | 0.00 | 0.00 | 76 | 1008.5 |
| 20260506083733 | 65 | 173 | 9.0 | 14.0 | 0.00 | 0.00 | 0.00 | 76 | 1008.6 |
| 20260506083221 | 65 | 214 | 6.0 | 13.0 | 0.00 | 0.00 | 0.00 | 76 | 1008.5 |
| 20260506082739 | 65 | 148 | 8.0 | 12.0 | 0.00 | 0.00 | 0.00 | 76 | 1008.5 |
| 20260506082230 | 65 | 184 | 8.0 | 15.0 | 0.00 | 0.00 | 0.00 | 76 | 1008.6 |
| 20260506081741 | 65 | 225 | 9.0 | 15.0 | 0.00 | 0.00 | 0.00 | 76 | 1008.6 |
| 20260506081231 | 65 | 174 | 8.0 | 18.0 | 0.00 | 0.00 | 0.00 | 75 | 1008.7 |
| 20260506080720 | 65 | 209 | 10.0 | 18.0 | 0.00 | 0.00 | 0.00 | 75 | 1008.6 |
| 20260506080239 | 65 | 207 | 8.0 | 18.0 | 0.00 | 0.00 | 0.00 | 75 | 1008.5 |
| 20260506073221 | 66 | 194 | 6.0 | 16.0 | 0.00 | 0.00 | 0.00 | 75 | 1008.6 |
| 20260506072739 | 66 | 209 | 5.0 | 16.0 | 0.00 | 0.00 | 0.00 | 75 | 1008.6 |
| 20260506072229 | 66 | 203 | 8.0 | 13.0 | 0.00 | 0.00 | 0.00 | 74 | 1008.6 |
| 20260506071720 | 66 | 225 | 7.0 | 18.0 | 0.00 | 0.00 | 0.00 | 74 | 1008.6 |
| 20260506071243 | 66 | 197 | 9.0 | 18.0 | 0.00 | 0.00 | 0.00 | 74 | 1008.7 |
| 20260506070736 | 66 | 194 | 5.0 | 14.0 | 0.00 | 0.00 | 0.00 | 74 | 1008.8 |
| 20260506070225 | 66 | 213 | 9.0 | 15.0 | 0.00 | 0.00 | 0.00 | 74 | 1008.8 |
| 20260506062243 | 67 | 164 | 9.0 | 12.0 | 0.00 | 0.00 | 0.00 | 72 | 1008.8 |
| 20260506061733 | 67 | 178 | 4.0 | 11.0 | 0.00 | 0.00 | 0.00 | 72 | 1008.8 |
| 20260506061244 | 67 | 172 | 8.0 | 13.0 | 0.00 | 0.00 | 0.00 | 72 | 1008.8 |
| 20260506060735 | 67 | 162 | 8.0 | 14.0 | 0.00 | 0.00 | 0.00 | 72 | 1008.8 |
| 20260506060228 | 67 | 193 | 7.0 | 14.0 | 0.00 | 0.00 | 0.00 | 72 | 1008.8 |
| 20260506051242 | 67 | 186 | 6.0 | 9.0 | 0.00 | 0.00 | 0.00 | 71 | 1009.3 |
| 20260506050733 | 68 | 200 | 7.0 | 10.0 | 0.00 | 0.00 | 0.00 | 70 | 1009.5 |
| 20260506050221 | 68 | 213 | 4.0 | 10.0 | 0.00 | 0.00 | 0.00 | 70 | 1009.6 |
| 20260506044720 | 68 | 200 | 3.0 | 13.0 | 0.00 | 0.00 | 0.00 | 69 | 1009.5 |
| 20260506044238 | 68 | 218 | 6.0 | 15.0 | 0.00 | 0.00 | 0.00 | 69 | 1009.6 |
| 20260506043758 | 68 | 200 | 8.0 | 15.0 | 0.00 | 0.00 | 0.00 | 69 | 1009.6 |
| 20260506043242 | 68 | 217 | 7.0 | 10.0 | 0.00 | 0.00 | 0.00 | 69 | 1009.5 |
| 20260506042752 | 68 | 202 | 4.0 | 10.0 | 0.00 | 0.00 | 0.00 | 68 | 1009.5 |
| 20260506042244 | 69 | 142 | 7.0 | 10.0 | 0.00 | 0.00 | 0.00 | 68 | 1009.5 |
| 20260506041736 | 69 | 216 | 3.0 | 11.0 | 0.00 | 0.00 | 0.00 | 68 | 1009.5 |
| 20260506041224 | 69 | 214 | 7.0 | 14.0 | 0.00 | 0.00 | 0.00 | 68 | 1009.5 |
| 20260506040740 | 69 | 186 | 5.0 | 15.0 | 0.00 | 0.00 | 0.00 | 68 | 1009.5 |
| 20260506040250 | 69 | 202 | 6.0 | 15.0 | 0.00 | 0.00 | 0.00 | 68 | 1009.4 |
| 20260506035735 | 69 | 157 | 6.0 | 15.0 | 0.00 | 0.00 | 0.00 | 68 | 1009.3 |
| 20260506035224 | 69 | 291 | 7.0 | 15.0 | 0.00 | 0.00 | 0.00 | 67 | 1009.3 |
| 20260506034742 | 69 | 159 | 9.0 | 15.0 | 0.00 | 0.00 | 0.00 | 67 | 1009.3 |
| 20260506034231 | 69 | 212 | 8.0 | 12.0 | 0.00 | 0.00 | 0.00 | 67 | 1009.4 |
| 20260506033745 | 69 | 171 | 3.0 | 14.0 | 0.00 | 0.00 | 0.00 | 66 | 1009.4 |
| 20260506033234 | 69 | 168 | 6.0 | 20.0 | 0.00 | 0.00 | 0.00 | 66 | 1009.5 |
| 20260506032724 | 69 | 181 | 6.0 | 20.0 | 0.00 | 0.00 | 0.00 | 66 | 1009.4 |
| 20260506032241 | 69 | 178 | 8.0 | 12.0 | 0.00 | 0.00 | 0.00 | 66 | 1009.4 |
| 20260506031731 | 70 | 153 | 8.0 | 12.0 | 0.00 | 0.00 | 0.00 | 65 | 1009.3 |
| 20260506031221 | 70 | 239 | 5.0 | 11.0 | 0.00 | 0.00 | 0.00 | 65 | 1009.4 |
| 20260506030739 | 70 | 137 | 6.0 | 14.0 | 0.00 | 0.00 | 0.00 | 65 | 1009.4 |
| 20260506030226 | 70 | 190 | 6.0 | 16.0 | 0.00 | 0.00 | 0.00 | 64 | 1009.3 |
| 20260506025741 | 70 | 161 | 4.0 | 16.0 | 0.00 | 0.00 | 0.00 | 64 | 1009.4 |
| 20260506025231 | 70 | 181 | 4.0 | 21.0 | 0.00 | 0.00 | 0.00 | 63 | 1009.4 |
| 20260506024744 | 70 | 200 | 8.0 | 21.0 | 0.00 | 0.00 | 0.00 | 63 | 1009.4 |
| 20260506024248 | 70 | 164 | 8.0 | 16.0 | 0.00 | 0.00 | 0.00 | 63 | 1009.4 |
| 20260506023805 | 70 | 238 | 6.0 | 15.0 | 0.00 | 0.00 | 0.00 | 62 | 1009.4 |
| 20260506023232 | 70 | 179 | 4.0 | 18.0 | 0.00 | 0.00 | 0.00 | 62 | 1009.5 |
| 20260506022743 | 71 | 189 | 6.0 | 18.0 | 0.00 | 0.00 | 0.00 | 62 | 1009.4 |
| 20260506022234 | 71 | 202 | 6.0 | 16.0 | 0.00 | 0.00 | 0.00 | 61 | 1009.3 |
| 20260506021723 | 71 | 204 | 5.0 | 15.0 | 0.00 | 0.00 | 0.00 | 61 | 1009.3 |
| 20260506021239 | 71 | 192 | 8.0 | 16.0 | 0.00 | 0.00 | 0.00 | 61 | 1009.3 |
| 20260506020758 | 71 | 182 | 8.0 | 16.0 | 0.00 | 0.00 | 0.00 | 60 | 1009.3 |
| 20260506020226 | 71 | 161 | 11.0 | 19.0 | 0.00 | 0.00 | 0.00 | 60 | 1009.3 |
| 20260506015742 | 71 | 196 | 8.0 | 19.0 | 0.00 | 0.00 | 0.00 | 60 | 1009.3 |
| 20260506015233 | 71 | 181 | 9.0 | 16.0 | 0.00 | 0.00 | 0.00 | 60 | 1009.3 |
| 20260506014722 | 71 | 198 | 9.0 | 16.0 | 0.00 | 0.00 | 0.00 | 60 | 1009.2 |
| 20260506014237 | 72 | 165 | 11.0 | 13.0 | 0.00 | 0.00 | 0.00 | 60 | 1009.1 |
| 20260506013724 | 72 | 159 | 8.0 | 13.0 | 0.00 | 0.00 | 0.00 | 60 | 1009.1 |
| 20260506013239 | 72 | 144 | 5.0 | 18.0 | 0.00 | 0.00 | 0.00 | 60 | 1009.0 |
| 20260506012726 | 72 | 165 | 9.0 | 18.0 | 0.00 | 0.00 | 0.00 | 59 | 1009.0 |
| 20260506012242 | 72 | 209 | 5.0 | 12.0 | 0.00 | 0.00 | 0.00 | 59 | 1009.0 |
| 20260506011734 | 72 | 132 | 7.0 | 12.0 | 0.00 | 0.00 | 0.00 | 59 | 1009.0 |
| 20260506011242 | 73 | 182 | 7.0 | 11.0 | 0.00 | 0.00 | 0.00 | 59 | 1008.8 |
| 20260506010753 | 73 | 203 | 5.0 | 22.0 | 0.00 | 0.00 | 0.00 | 58 | 1008.8 |
| 20260506010245 | 73 | 199 | 5.0 | 22.0 | 0.00 | 0.00 | 0.00 | 58 | 1008.8 |
| 20260506005736 | 73 | 209 | 8.0 | 16.0 | 0.00 | 0.00 | 0.00 | 57 | 1008.7 |
| 20260506005245 | 74 | 206 | 8.0 | 13.0 | 0.00 | 0.00 | 0.00 | 56 | 1008.7 |
| 20260506004736 | 74 | 201 | 4.0 | 14.0 | 0.00 | 0.00 | 0.00 | 55 | 1008.6 |
| 20260506004224 | 74 | 205 | 6.0 | 14.0 | 0.00 | 0.00 | 0.00 | 54 | 1008.6 |
| 20260506003803 | 74 | 196 | 5.0 | 13.0 | 0.00 | 0.00 | 0.00 | 54 | 1008.5 |
| 20260506003259 | 75 | 148 | 7.0 | 15.0 | 0.00 | 0.00 | 0.00 | 53 | 1008.4 |
| 20260506002725 | 75 | 189 | 6.0 | 24.0 | 0.00 | 0.00 | 0.00 | 52 | 1008.4 |
| 20260506002242 | 75 | 157 | 6.0 | 24.0 | 0.00 | 0.00 | 0.00 | 51 | 1008.3 |
| 20260506001737 | 76 | 180 | 5.0 | 14.0 | 0.00 | 0.00 | 0.00 | 50 | 1008.3 |
| 20260506001225 | 76 | 175 | 6.0 | 14.0 | 0.00 | 0.00 | 0.00 | 48 | 1008.2 |
| 20260506000741 | 77 | 176 | 6.0 | 15.0 | 0.00 | 0.00 | 0.00 | 47 | 1008.1 |
| 20260506000235 | 77 | 159 | 9.0 | 13.0 | 0.00 | 0.00 | 0.00 | 46 | 1008.1 |
| 20260505235724 | 77 | 207 | 6.0 | 18.0 | 0.00 | 0.00 | 0.00 | 46 | 1008.0 |
| 20260505235218 | 78 | 189 | 7.0 | 18.0 | 0.00 | 0.00 | 0.00 | 45 | 1008.0 |
| 20260505234736 | 78 | 171 | 10.0 | 16.0 | 0.00 | 0.00 | 0.00 | 44 | 1007.9 |
| 20260505234224 | 78 | 174 | 11.0 | 16.0 | 0.00 | 0.00 | 0.00 | 44 | 1007.8 |
| 20260505233741 | 78 | 167 | 9.0 | 15.0 | 0.00 | 0.00 | 0.00 | 44 | 1007.8 |
| 20260505233233 | 79 | 202 | 6.0 | 13.0 | 0.00 | 0.00 | 0.00 | 44 | 1007.8 |
| 20260505232722 | 79 | 205 | 8.0 | 16.0 | 0.00 | 0.00 | 0.00 | 43 | 1007.7 |
| 20260505232240 | 79 | 222 | 6.0 | 19.0 | 0.00 | 0.00 | 0.00 | 43 | 1007.6 |
| 20260505231758 | 80 | 197 | 9.0 | 19.0 | 0.00 | 0.00 | 0.00 | 43 | 1007.6 |
| 20260505231225 | 80 | 195 | 7.0 | 14.0 | 0.00 | 0.00 | 0.00 | 42 | 1007.5 |
| 20260505230803 | 81 | 202 | 9.0 | 20.0 | 0.00 | 0.00 | 0.00 | 42 | 1007.6 |
| 20260505230227 | 81 | 327 | 8.0 | 21.0 | 0.00 | 0.00 | 0.00 | 41 | 1007.4 |
| 20260505225803 | 81 | 187 | 11.0 | 21.0 | 0.00 | 0.00 | 0.00 | 40 | 1007.3 |
| 20260505225232 | 82 | 193 | 11.0 | 26.0 | 0.00 | 0.00 | 0.00 | 40 | 1007.4 |
| 20260505224743 | 82 | 187 | 6.0 | 26.0 | 0.00 | 0.00 | 0.00 | 40 | 1007.4 |
| 20260505224252 | 82 | 240 | 14.0 | 23.0 | 0.00 | 0.00 | 0.00 | 39 | 1007.3 |
| 20260505223721 | 82 | 213 | 11.0 | 23.0 | 0.00 | 0.00 | 0.00 | 38 | 1007.1 |
| 20260505223240 | 82 | 198 | 11.0 | 24.0 | 0.00 | 0.00 | 0.00 | 38 | 1007.2 |
| 20260505222748 | 83 | 186 | 12.0 | 24.0 | 0.00 | 0.00 | 0.00 | 37 | 1007.0 |
| 20260505222220 | 83 | 187 | 8.0 | 15.0 | 0.00 | 0.00 | 0.00 | 37 | 1007.1 |
| 20260505221736 | 83 | 157 | 7.0 | 15.0 | 0.00 | 0.00 | 0.00 | 36 | 1007.0 |
| 20260505221242 | 84 | 189 | 5.0 | 18.0 | 0.00 | 0.00 | 0.00 | 34 | 1007.1 |
| 20260505220759 | 84 | 242 | 8.0 | 21.0 | 0.00 | 0.00 | 0.00 | 34 | 1006.8 |
| 20260505220255 | 84 | 203 | 10.0 | 26.0 | 0.00 | 0.00 | 0.00 | 34 | 1006.7 |
| 20260505215742 | 84 | 297 | 5.0 | 24.0 | 0.00 | 0.00 | 0.00 | 34 | 1006.9 |
| 20260505215230 | 84 | 249 | 11.0 | 24.0 | 0.00 | 0.00 | 0.00 | 32 | 1006.9 |
| 20260505214745 | 84 | 159 | 8.0 | 23.0 | 0.00 | 0.00 | 0.00 | 33 | 1006.9 |
| 20260505214240 | 84 | 178 | 10.0 | 23.0 | 0.00 | 0.00 | 0.00 | 32 | 1006.9 |
| 20260505213724 | 85 | 197 | 9.0 | 20.0 | 0.00 | 0.00 | 0.00 | 33 | 1006.9 |
| 20260505213237 | 85 | 225 | 5.0 | 19.0 | 0.00 | 0.00 | 0.00 | 32 | 1006.9 |
| 20260505212730 | 85 | 208 | 8.0 | 22.0 | 0.00 | 0.00 | 0.00 | 32 | 1006.9 |
| 20260505212242 | 85 | 198 | 7.0 | 27.0 | 0.00 | 0.00 | 0.00 | 32 | 1006.7 |
| 20260505211732 | 85 | 229 | 11.0 | 27.0 | 0.00 | 0.00 | 0.00 | 31 | 1006.7 |
| 20260505211219 | 85 | 247 | 6.0 | 14.0 | 0.00 | 0.00 | 0.00 | 33 | 1006.6 |
| 20260505210717 | 85 | 223 | 8.0 | 15.0 | 0.00 | 0.00 | 0.00 | 35 | 1006.6 |
| 20260505210235 | 85 | 226 | 8.0 | 16.0 | 0.00 | 0.00 | 0.00 | 35 | 1006.6 |
| 20260505205723 | 85 | 233 | 5.0 | 22.0 | 0.00 | 0.00 | 0.00 | 37 | 1006.5 |
| 20260505205238 | 85 | 244 | 7.0 | 32.0 | 0.00 | 0.00 | 0.00 | 37 | 1006.6 |
| 20260505204728 | 85 | 190 | 11.0 | 24.0 | 0.00 | 0.00 | 0.00 | 37 | 1006.5 |
| 20260505204243 | 85 | 116 | 11.0 | 24.0 | 0.00 | 0.00 | 0.00 | 37 | 1006.5 |
| 20260505203751 | 85 | 198 | 16.0 | 22.0 | 0.00 | 0.00 | 0.00 | 37 | 1006.3 |
| 20260505203303 | 86 | 223 | 10.0 | 22.0 | 0.00 | 0.00 | 0.00 | 37 | 1006.5 |
| 20260505202733 | 85 | 329 | 8.0 | 18.0 | 0.00 | 0.00 | 0.00 | 38 | 1006.6 |
| 20260505202242 | 85 | 263 | 10.0 | 28.0 | 0.00 | 0.00 | 0.00 | 37 | 1006.6 |
| 20260505201735 | 85 | 307 | 9.0 | 28.0 | 0.00 | 0.00 | 0.00 | 36 | 1006.5 |
| 20260505201224 | 85 | 282 | 13.0 | 23.0 | 0.00 | 0.00 | 0.00 | 35 | 1006.6 |
| 20260505200720 | 86 | 157 | 12.0 | 23.0 | 0.00 | 0.00 | 0.00 | 35 | 1006.7 |
| 20260505200234 | 86 | 171 | 8.0 | 26.0 | 0.00 | 0.00 | 0.00 | 37 | 1006.6 |
| 20260505195723 | 85 | 165 | 10.0 | 26.0 | 0.00 | 0.00 | 0.00 | 38 | 1006.6 |
| 20260505195258 | 85 | 151 | 11.0 | 19.0 | 0.00 | 0.00 | 0.00 | 38 | 1006.6 |
| 20260505194722 | 85 | 227 | 10.0 | 19.0 | 0.00 | 0.00 | 0.00 | 36 | 1006.8 |
| 20260505194301 | 86 | 188 | 6.0 | 21.0 | 0.00 | 0.00 | 0.00 | 37 | 1006.9 |
| 20260505193731 | 86 | 177 | 10.0 | 23.0 | 0.00 | 0.00 | 0.00 | 37 | 1006.7 |
| 20260505193224 | 86 | 178 | 12.0 | 23.0 | 0.00 | 0.00 | 0.00 | 37 | 1006.8 |
| 20260505192757 | 86 | 188 | 10.0 | 21.0 | 0.00 | 0.00 | 0.00 | 37 | 1007.0 |
| 20260505192244 | 86 | 241 | 10.0 | 23.0 | 0.00 | 0.00 | 0.00 | 37 | 1007.0 |
| 20260505191721 | 86 | 186 | 10.0 | 18.0 | 0.00 | 0.00 | 0.00 | 36 | 1007.0 |
| 20260505191234 | 86 | 182 | 8.0 | 21.0 | 0.00 | 0.00 | 0.00 | 38 | 1007.0 |
| 20260505190723 | 86 | 215 | 10.0 | 26.0 | 0.00 | 0.00 | 0.00 | 36 | 1007.2 |
| 20260505190238 | 86 | 220 | 5.0 | 26.0 | 0.00 | 0.00 | 0.00 | 38 | 1007.3 |
| 20260505185727 | 86 | 203 | 11.0 | 24.0 | 0.00 | 0.00 | 0.00 | 37 | 1007.3 |
| 20260505185244 | 86 | 214 | 7.0 | 23.0 | 0.00 | 0.00 | 0.00 | 37 | 1007.3 |
| 20260505184734 | 86 | 176 | 11.0 | 23.0 | 0.00 | 0.00 | 0.00 | 37 | 1007.4 |
| 20260505184243 | 85 | 163 | 12.0 | 23.0 | 0.00 | 0.00 | 0.00 | 38 | 1007.6 |
| 20260505183735 | 85 | 217 | 8.0 | 23.0 | 0.00 | 0.00 | 0.00 | 38 | 1007.6 |
| 20260505183226 | 85 | 180 | 11.0 | 20.0 | 0.00 | 0.00 | 0.00 | 39 | 1007.6 |